Regional Weather Roundup
Issued by NWS

Home | Current Version | Previous Version | Graphics & Text | Print | Product List | Glossary Off
Versions: 1 2 3 4 5 6 7 8 9 10 11 12 13 14 15 16 17 18 19 20 21 22 23 24 25 26 27 28 29 30 31 32 33 34 35 36 37 38 39 40 41 42 43 44 45 46 47 48 49 50

000
ASUS43 KTOP 251508
RWRKS

WEATHER ROUNDUP FOR KANSAS
NATIONAL WEATHER SERVICE GOODLAND KS
1000 AM CDT SUN SEP 25 2016

NOTE:  "FAIR" INDICATES FEW OR NO CLOUDS BELOW 12,000 FEET WITH NO
SIGNIFICANT WEATHER AND/OR OBSTRUCTIONS TO VISIBILITY.

KSZ001>006-013>018-027>032-041>047-251600-
NORTHWEST KANSAS

CITY           SKY/WX    TMP DP  RH WIND       PRES   REMARKS
GOODLAND       SUNNY     58  39  49 N21G29    30.36R
HAYS           SUNNY     63  41  45 N22G29    30.26R
HILL CITY      SUNNY     62  45  53 N15G22    30.30R
RUSSELL        CLOUDY    57  47  69 N15       30.25R
$$

KSZ061>065-074>080-084>089-251600-
SOUTHWEST KANSAS

CITY           SKY/WX    TMP DP  RH WIND       PRES   REMARKS
DODGE CITY     SUNNY     60  46  59 N18G28    30.28R
ELKHART          N/A     56  36  47 N10         N/A
GARDEN CITY    SUNNY     62  40  44 N28G37    30.31R
GREAT BEND     PTSUNNY   57  43  58 N17       30.26R
LIBERAL        SUNNY     61  45  55 N30G37    30.31R
PRATT          CLOUDY    56  46  68 N22G31    30.24S
$$

KSZ066>073-081>083-090>101-251600-
SOUTHEAST KANSAS

CITY           SKY/WX    TMP DP  RH WIND       PRES   REMARKS
CHANUTE        LGT RAIN  70  68  93 N3        30.11R
COFFEYVILLE    LGT RAIN  71  68  90 N9        30.10S
HUTCHINSON     MOSUNNY   60  49  66 N18G25    30.21R
MEDICINE LODGE   N/A     59  48  67 N17G28      N/A
NEWTON         CLOUDY   N/A N/A N/A N15       30.20R
PARSONS        HVY RAIN  70  68  93 N7        30.12R FOG
WICHITA INTL   DRIZZLE   60  53  77 N14       30.19R
WICHITA JABRA  LGT RAIN  58  55  90 N15       30.19R
WICHITA MCCONL CLOUDY    58  54  85 N14G21    30.19R
WINFIELD       HVY RAIN  60  60 100 N24G33    30.16R FOG
$$

KSZ007>012-019>026-033>040-048>060-102>105-251600-
NORTHEAST KANSAS

CITY           SKY/WX    TMP DP  RH WIND       PRES   REMARKS
CONCORDIA      PTSUNNY   60  50  69 NW10      30.23R
EMPORIA        LGT RAIN  59  55  87 NW12      30.17R
LAWRENCE       LGT RAIN  68  68 100 W5        30.11R
MANHATTAN      CLOUDY    63  52  67 MISG      30.20R
MARYSVILLE     CLOUDY    61  52  72 N10       30.20R
OLATHE IND     LGT RAIN  68  67  96 SW6       30.13R
OLATHE EXE     LGT RAIN  67  66  97 SW5       30.12R
SALINA         PTSUNNY   61  51  70 NW12      30.24R
TOPEKA BILLARD LGT RAIN  59  55  87 N14G24    30.14R
TOPEKA FORBES  LGT RAIN  60  55  83 N15       30.15R
$$




USA.gov is the U.S. government's official web portal to all federal, state and local government web resources and services.